• In Switzerland
  • List of Countries
  • For 7 days
  • Water Temperature
  • Satellite Maps
  • Weather Map
  • Weather Widgets
  • user-avatar
    Login

    Hourly Weather Ahwaz

    Today, 19 October, Friday

    Time Temperature Precipitation Wind Pressure Humidity
    00:00 +33°C° 0 mm 1 mps 758 mmHg 22%
    01:00 +32°C° 0 mm 1 mps 758 mmHg 23%
    02:00 +32°C° 0 mm 1 mps 757 mmHg 25%
    03:00 +31°C° 0 mm 1 mps 757 mmHg 26%
    04:00 +31°C° 0 mm 1 mps 758 mmHg 28%
    05:00 +30°C° 0 mm 2 mps 758 mmHg 31%
    06:00 +30°C° 0 mm 2 mps 758 mmHg 33%
    07:00 +31°C° 0 mm 2 mps 758 mmHg 32%
    08:00 +34°C° 0 mm 2 mps 759 mmHg 31%
    09:00 +35°C° 0 mm 2 mps 759 mmHg 29%
    10:00 +36°C° 0 mm 2 mps 759 mmHg 26%
    11:00 +36°C° 0 mm 1 mps 759 mmHg 23%
    12:00 +37°C° 0 mm 1 mps 758 mmHg 19%
    13:00 +39°C° 0 mm 1 mps 758 mmHg 18%
    14:00 +39°C° 0 mm 1 mps 758 mmHg 16%
    15:00 +40°C° 0 mm 1 mps 758 mmHg 15%
    16:00 +39°C° 0 mm 2 mps 758 mmHg 15%
    17:00 +38°C° 0 mm 2 mps 758 mmHg 16%
    18:00 +37°C° 0 mm 2 mps 758 mmHg 17%
    19:00 +36°C° 0.1 mm 2 mps 758 mmHg 20%
    20:00 +36°C° 0.1 mm 2 mps 758 mmHg 23%
    21:00 +35°C° 0.1 mm 2 mps 758 mmHg 26%
    22:00 +34°C° 0 mm 2 mps 758 mmHg 29%
    23:00 +34°C° 0 mm 2 mps 759 mmHg 33%

    Tomorrow, 20 October, Saturday

    Time Temperature Precipitation Wind Pressure Humidity
    00:00 +33°C° 0 mm 3 mps 759 mmHg 37%
    01:00 +31°C° 0 mm 3 mps 759 mmHg 42%
    02:00 +31°C° 0 mm 3 mps 759 mmHg 47%
    03:00 +30°C° 0 mm 3 mps 758 mmHg 51%
    04:00 +30°C° 0 mm 3 mps 759 mmHg 55%
    05:00 +30°C° 0 mm 3 mps 759 mmHg 58%
    06:00 +30°C° 0 mm 3 mps 759 mmHg 61%
    07:00 +31°C° 0 mm 3 mps 759 mmHg 56%
    08:00 +33°C° 0 mm 4 mps 760 mmHg 50%
    09:00 +35°C° 0 mm 4 mps 760 mmHg 45%
    10:00 +36°C° 0 mm 3 mps 760 mmHg 40%
    11:00 +37°C° 0 mm 3 mps 759 mmHg 35%
    12:00 +38°C° 0 mm 2 mps 759 mmHg 29%
    13:00 +38°C° 0 mm 2 mps 759 mmHg 27%
    14:00 +37°C° 0 mm 1 mps 758 mmHg 25%
    15:00 +39°C° 0 mm 1 mps 758 mmHg 23%
    16:00 +37°C° 0 mm 1 mps 758 mmHg 24%
    17:00 +38°C° 0 mm 2 mps 758 mmHg 25%
    18:00 +37°C° 0 mm 2 mps 758 mmHg 26%
    19:00 +37°C° 0 mm 3 mps 758 mmHg 30%
    20:00 +36°C° 0 mm 3 mps 759 mmHg 34%
    21:00 +35°C° 0 mm 4 mps 759 mmHg 38%
    22:00 +34°C° 0 mm 4 mps 759 mmHg 39%
    23:00 +34°C° 0 mm 4 mps 759 mmHg 41%

    Day after tomorrow, 21 October, Sunday

    Time Temperature Precipitation Wind Pressure Humidity
    00:00 +33°C° 0 mm 4 mps 759 mmHg 42%
    01:00 +33°C° 0.1 mm 4 mps 759 mmHg 44%
    02:00 +33°C° 0.1 mm 4 mps 758 mmHg 47%
    03:00 +32°C° 0.1 mm 4 mps 758 mmHg 49%
    04:00 +32°C° 0 mm 4 mps 759 mmHg 51%
    05:00 +30°C° 0 mm 3 mps 759 mmHg 54%
    06:00 +30°C° 0 mm 3 mps 759 mmHg 56%
    07:00 +32°C° 0 mm 4 mps 760 mmHg 51%
    08:00 +33°C° 0 mm 5 mps 760 mmHg 46%
    09:00 +35°C° 0 mm 5 mps 760 mmHg 41%
    10:00 +36°C° 0 mm 5 mps 760 mmHg 36%
    11:00 +37°C° 0 mm 5 mps 760 mmHg 32%
    12:00 +39°C° 0 mm 5 mps 759 mmHg 27%
    13:00 +39°C° 0 mm 5 mps 759 mmHg 26%
    14:00 +39°C° 0 mm 5 mps 758 mmHg 25%
    15:00 +40°C° 0 mm 5 mps 758 mmHg 24%
    16:00 +39°C° 0.3 mm 6 mps 758 mmHg 28%
    17:00 +38°C° 0.3 mm 6 mps 758 mmHg 32%
    18:00 +36°C° 0.3 mm 7 mps 758 mmHg 37%
    19:00 +35°C° 0 mm 7 mps 758 mmHg 40%
    20:00 +34°C° 0 mm 7 mps 759 mmHg 44%
    21:00 +34°C° 0 mm 6 mps 759 mmHg 48%
    22:00 +34°C° 0.1 mm 6 mps 759 mmHg 49%
    23:00 +33°C° 0.1 mm 7 mps 759 mmHg 50%

    22 October, Monday

    Time Temperature Precipitation Wind Pressure Humidity
    00:00 +33°C° 0.1 mm 7 mps 758 mmHg 51%
    01:00 +32°C° 2.7 mm 7 mps 759 mmHg 54%
    02:00 +29°C° 2.7 mm 7 mps 759 mmHg 57%
    03:00 +28°C° 2.7 mm 8 mps 760 mmHg 60%
    04:00 +28°C° 3.3 mm 8 mps 760 mmHg 57%
    05:00 +27°C° 3.3 mm 8 mps 760 mmHg 55%
    06:00 +26°C° 3.3 mm 9 mps 761 mmHg 53%
    07:00 +28°C° 0.8 mm 9 mps 761 mmHg 48%
    08:00 +29°C° 0.8 mm 9 mps 761 mmHg 44%
    09:00 +31°C° 0.8 mm 9 mps 762 mmHg 39%
    10:00 +32°C° 0.2 mm 8 mps 761 mmHg 38%
    11:00 +33°C° 0.2 mm 8 mps 761 mmHg 36%
    12:00 +34°C° 0.2 mm 7 mps 760 mmHg 35%
    13:00 +35°C° 0 mm 6 mps 760 mmHg 34%
    14:00 +35°C° 0 mm 5 mps 759 mmHg 33%
    15:00 +36°C° 0 mm 5 mps 759 mmHg 32%
    16:00 +35°C° 0.1 mm 4 mps 759 mmHg 34%
    17:00 +35°C° 0.1 mm 4 mps 759 mmHg 35%
    18:00 +34°C° 0.1 mm 3 mps 759 mmHg 37%
    19:00 +34°C° 0.1 mm 3 mps 759 mmHg 40%
    20:00 +33°C° 0.1 mm 3 mps 760 mmHg 42%
    21:00 +32°C° 0.1 mm 2 mps 760 mmHg 44%
    22:00 +31°C° 0 mm 2 mps 760 mmHg 46%
    23:00 +31°C° 0 mm 1 mps 759 mmHg 49%

    23 October, Tuesday

    Time Temperature Precipitation Wind Pressure Humidity
    00:00 +31°C° 0 mm 1 mps 759 mmHg 51%
    01:00 +30°C° 0 mm 1 mps 759 mmHg 51%
    02:00 +30°C° 0 mm 1 mps 759 mmHg 51%
    03:00 +30°C° 0 mm 1 mps 759 mmHg 52%
    04:00 +30°C° 0 mm 1 mps 759 mmHg 52%
    05:00 +30°C° 0 mm 1 mps 759 mmHg 52%
    06:00 +29°C° 0 mm 1 mps 760 mmHg 52%
    07:00 +30°C° 0 mm 1 mps 760 mmHg 47%
    08:00 +32°C° 0 mm 1 mps 760 mmHg 42%
    09:00 +33°C° 0 mm 1 mps 761 mmHg 37%
    10:00 +33°C° 0 mm 1 mps 760 mmHg 35%
    11:00 +34°C° 0 mm 1 mps 760 mmHg 33%
    12:00 +33°C° 0 mm 0 mps 759 mmHg 30%
    13:00 +33°C° 0 mm 0 mps 759 mmHg 29%
    14:00 +36°C° 0 mm 1 mps 758 mmHg 27%
    15:00 +36°C° 0 mm 1 mps 758 mmHg 25%
    16:00 +36°C° 0 mm 1 mps 758 mmHg 26%
    17:00 +36°C° 0 mm 2 mps 758 mmHg 28%
    18:00 +36°C° 0 mm 2 mps 759 mmHg 29%
    19:00 +35°C° 0 mm 2 mps 759 mmHg 30%
    20:00 +35°C° 0 mm 2 mps 759 mmHg 31%
    21:00 +34°C° 0 mm 2 mps 759 mmHg 32%
    22:00 +34°C° 0 mm 2 mps 759 mmHg 33%
    23:00 +32°C° 0 mm 2 mps 759 mmHg 34%

    24 October, Wednesday

    Time Temperature Precipitation Wind Pressure Humidity
    00:00 +32°C° 0 mm 2 mps 759 mmHg 35%
    01:00 +32°C° 0 mm 2 mps 758 mmHg 36%
    02:00 +31°C° 0 mm 2 mps 758 mmHg 37%
    03:00 +31°C° 0 mm 2 mps 758 mmHg 38%
    04:00 +30°C° 0 mm 2 mps 758 mmHg 39%
    05:00 +30°C° 0 mm 1 mps 758 mmHg 40%
    06:00 +30°C° 0 mm 1 mps 759 mmHg 41%
    07:00 +31°C° 0 mm 1 mps 759 mmHg 37%
    08:00 +32°C° 0 mm 1 mps 759 mmHg 33%
    09:00 +33°C° 0 mm 1 mps 759 mmHg 29%
    10:00 +34°C° 0 mm 1 mps 758 mmHg 27%
    11:00 +33°C° 0 mm 0 mps 758 mmHg 25%
    12:00 +34°C° 0 mm 0 mps 757 mmHg 22%
    13:00 +36°C° 0 mm 1 mps 757 mmHg 21%
    14:00 +37°C° 0 mm 1 mps 756 mmHg 20%
    15:00 +38°C° 0 mm 2 mps 756 mmHg 19%
    16:00 +36°C° 0 mm 1 mps 756 mmHg 21%
    17:00 +36°C° 0 mm 1 mps 756 mmHg 23%
    18:00 +35°C° 0 mm 1 mps 756 mmHg 25%
    19:00 +35°C° 0 mm 1 mps 756 mmHg 25%
    20:00 +34°C° 0 mm 1 mps 757 mmHg 25%
    21:00 +35°C° 0 mm 2 mps 757 mmHg 25%
    22:00 +35°C° 0 mm 2 mps 757 mmHg 26%
    23:00 +34°C° 0 mm 2 mps 756 mmHg 27%
    Show more